Location: Białystok
(53.1343°N, 23.1544°E)
Time: 06:07:47
(UTC+02:00)

ISS - Pass Details

Date: 26 January 2019
Orbit: 411 x 421 km, 51.6° (Epoch: 19 October)

Event Time Altitude Azimuth Distance (km) Brightness Sun altitude
Rises 19:07:24 0° 259° (W) 2,419 1.2 -27.9°
Reaches altitude 10° 19:09:31 10° 257° (WSW) 1,552 0.0 -28.2°
Enters shadow 19:10:44 20° 253° (WSW) 1,073 -1.1 -28.4°
